WGS F6 (USA 244)

Last updated on Wed Sep 17 2025 00:02:48 GMT+0000 (Coordinated Universal Time)

1 39222U 13041A 25259.57822628 .00000000 00000+0 00000+0 0 9998 2 39222 0.0252 141.6137 0000453 80.2407 206.8673 1.00271288 43317
UTC large
Height (km)
Speed (km/s)
/
Latitude / Longitude
Inclination (degrees)
Orbital Period (minutes)
Azimuth
Elevation
Range (km)
Doppler Factor

Next 0 passes for location: London (51.5072 / 0.1276)

Sorry there are no passes over London.